ABR5MS LPPR-GMMX

Flight info

Callsign ABR5MS
Flight time 1h 55m
Altitude 37000
Route MANIK DCT FTM DCT MAGUM DCT SOTEX DCT VFA DCT AMSEL UR722 SAK UW900 SLK UZ801 VALBA UG850 OBOGA
Aircraft B738/M-SDE2E3FGHIRWXY/LB1

Departure

Time 2026-05-08 08:50
Airport Francisco de Sá Carneiro Airport (LPPR)

Arrival

Time 2026-05-08 10:46
Airport Marrakesh Menara Airport (GMMX)
Time Latitude Longitude Altitude Speed Heading
2026-05-08 08:10 41.24103 -8.67334 236 ft 0 kts 79°
2026-05-08 08:38 41.24101 -8.67351 242 ft 3 kts 79°
2026-05-08 08:39 41.24097 -8.67376 238 ft 3 kts 79°
2026-05-08 08:39 41.24093 -8.67400 240 ft 3 kts 67°
2026-05-08 08:39 41.24083 -8.67421 238 ft 3 kts 36°
2026-05-08 08:39 41.24066 -8.67432 241 ft 3 kts
2026-05-08 08:40 41.24047 -8.67430 241 ft 2 kts 354°
2026-05-08 08:40 41.24045 -8.67430 241 ft 0 kts 354°
2026-05-08 08:44 41.24093 -8.67440 238 ft 9 kts 344°
2026-05-08 08:45 41.24146 -8.67474 237 ft 8 kts 327°
2026-05-08 08:45 41.24191 -8.67521 238 ft 8 kts 317°
2026-05-08 08:45 41.24229 -8.67577 234 ft 9 kts 309°
2026-05-08 08:45 41.24275 -8.67656 229 ft 14 kts 308°
2026-05-08 08:46 41.24363 -8.67724 223 ft 17 kts 351°
2026-05-08 08:46 41.24489 -8.67755 215 ft 20 kts 348°
2026-05-08 08:46 41.24633 -8.67791 210 ft 22 kts 350°
2026-05-08 08:46 41.24793 -8.67845 204 ft 26 kts 339°
2026-05-08 08:47 41.24972 -8.67939 188 ft 28 kts 350°
2026-05-08 08:47 41.25164 -8.67989 182 ft 27 kts 349°
2026-05-08 08:47 41.25291 -8.68022 175 ft 28 kts 349°
2026-05-08 08:47 41.25480 -8.68073 168 ft 19 kts 348°
2026-05-08 08:48 41.25586 -8.68102 164 ft 16 kts 349°
2026-05-08 08:48 41.25674 -8.68141 164 ft 7 kts 302°
2026-05-08 08:48 41.25675 -8.68207 165 ft 3 kts 259°
2026-05-08 08:49 41.25673 -8.68221 165 ft 6 kts 258°
2026-05-08 08:49 41.25659 -8.68310 166 ft 12 kts 253°
2026-05-08 08:49 41.25577 -8.68326 167 ft 22 kts 167°
2026-05-08 08:50 41.25188 -8.68226 179 ft 91 kts 168°
2026-05-08 08:50 41.24357 -8.68009 209 ft 148 kts 168°
2026-05-08 08:50 41.23212 -8.67717 501 ft 176 kts 168°
2026-05-08 08:50 41.22048 -8.67430 1507 ft 167 kts 170°
2026-05-08 08:51 41.20874 -8.67136 2320 ft 171 kts 170°
2026-05-08 08:51 41.19715 -8.66831 3224 ft 172 kts 169°
2026-05-08 08:51 41.18482 -8.66502 3805 ft 194 kts 169°
2026-05-08 08:51 41.17064 -8.66123 4047 ft 221 kts 169°
2026-05-08 08:52 41.15513 -8.65709 4423 ft 240 kts 169°
2026-05-08 08:52 41.13794 -8.65251 4836 ft 259 kts 169°
2026-05-08 08:52 41.12015 -8.64778 5773 ft 260 kts 169°
2026-05-08 08:52 41.10234 -8.64306 6739 ft 262 kts 169°
2026-05-08 08:53 41.08440 -8.63831 7638 ft 263 kts 170°
2026-05-08 08:53 41.06630 -8.63491 8578 ft 264 kts 177°
2026-05-08 08:53 41.04794 -8.63397 9514 ft 265 kts 180°
2026-05-08 08:53 41.02934 -8.63345 10303 ft 272 kts 180°
2026-05-08 08:54 41.00956 -8.63276 10535 ft 298 kts 179°
2026-05-08 08:54 40.98800 -8.63179 10789 ft 320 kts 179°
2026-05-08 08:54 40.96531 -8.63062 11371 ft 330 kts 179°
2026-05-08 08:54 40.94213 -8.62938 12127 ft 335 kts 179°
2026-05-08 08:55 40.91861 -8.62811 12891 ft 340 kts 179°
2026-05-08 08:55 40.89488 -8.62685 13620 ft 346 kts 179°
2026-05-08 08:55 40.87061 -8.62556 14283 ft 351 kts 179°
2026-05-08 08:55 40.84606 -8.62426 14994 ft 354 kts 179°
2026-05-08 08:56 40.82129 -8.62295 15702 ft 357 kts 179°
2026-05-08 08:56 40.79651 -8.62164 16357 ft 362 kts 179°
2026-05-08 08:56 40.77132 -8.62031 17003 ft 367 kts 179°
2026-05-08 08:56 40.74566 -8.61895 17662 ft 371 kts 179°
2026-05-08 08:57 40.71970 -8.61758 18290 ft 375 kts 179°
2026-05-08 08:57 40.69354 -8.61620 18863 ft 379 kts 179°
2026-05-08 08:57 40.66707 -8.61394 19477 ft 382 kts 177°
2026-05-08 08:57 40.64057 -8.61080 20079 ft 384 kts 176°
2026-05-08 08:58 40.61380 -8.60733 20671 ft 387 kts 176°
2026-05-08 08:58 40.58690 -8.60380 21251 ft 390 kts 176°
2026-05-08 08:58 40.55974 -8.60030 21840 ft 392 kts 176°
2026-05-08 08:58 40.53264 -8.59687 22405 ft 394 kts 177°
2026-05-08 08:59 40.50518 -8.59345 22976 ft 396 kts 177°
2026-05-08 08:59 40.47758 -8.59005 23523 ft 399 kts 177°
2026-05-08 08:59 40.44999 -8.58669 23972 ft 401 kts 177°
2026-05-08 08:59 40.42208 -8.58330 24421 ft 403 kts 176°
2026-05-08 09:00 40.39411 -8.57991 24849 ft 405 kts 176°
2026-05-08 09:00 40.36592 -8.57650 25273 ft 408 kts 177°
2026-05-08 09:00 40.33755 -8.57307 25685 ft 410 kts 176°
2026-05-08 09:00 40.30905 -8.56963 26071 ft 413 kts 177°
2026-05-08 09:01 40.28023 -8.56615 26444 ft 416 kts 177°
2026-05-08 09:01 40.25134 -8.56267 26825 ft 419 kts 177°
2026-05-08 09:01 40.22243 -8.55919 27194 ft 421 kts 177°
2026-05-08 09:01 40.19328 -8.55568 27544 ft 424 kts 177°
2026-05-08 09:02 40.16340 -8.55208 27911 ft 427 kts 177°
2026-05-08 09:02 40.13375 -8.54852 28259 ft 429 kts 178°
2026-05-08 09:02 40.10424 -8.54497 28585 ft 432 kts 178°
2026-05-08 09:02 40.07427 -8.54138 28907 ft 434 kts 178°
2026-05-08 09:03 40.04404 -8.53776 29248 ft 437 kts 178°
2026-05-08 09:03 40.01339 -8.53408 29577 ft 439 kts 178°
2026-05-08 09:03 39.98322 -8.53047 29897 ft 441 kts 179°
2026-05-08 09:03 39.95262 -8.52681 30284 ft 439 kts 179°
2026-05-08 09:04 39.92193 -8.52312 30718 ft 437 kts 179°
2026-05-08 09:04 39.89209 -8.51955 31110 ft 435 kts 179°
2026-05-08 09:04 39.86191 -8.51595 31470 ft 435 kts 179°
2026-05-08 09:04 39.83154 -8.51233 31819 ft 434 kts 179°
2026-05-08 09:05 39.80169 -8.50876 32157 ft 433 kts 179°
2026-05-08 09:05 39.77178 -8.50521 32548 ft 432 kts 179°
2026-05-08 09:05 39.74158 -8.50163 32936 ft 430 kts 179°
2026-05-08 09:05 39.71211 -8.49814 33279 ft 429 kts 179°
2026-05-08 09:06 39.68205 -8.49458 33617 ft 429 kts 179°
2026-05-08 09:06 39.65265 -8.49057 33966 ft 429 kts 177°
2026-05-08 09:06 39.62299 -8.48505 34256 ft 429 kts 176°
2026-05-08 09:06 39.59355 -8.47895 34515 ft 429 kts 175°
2026-05-08 09:07 39.56406 -8.47268 34750 ft 429 kts 175°
2026-05-08 09:07 39.53458 -8.46645 35013 ft 429 kts 175°
2026-05-08 09:07 39.50496 -8.46029 35278 ft 428 kts 176°
2026-05-08 09:07 39.47562 -8.45429 35520 ft 428 kts 176°
2026-05-08 09:08 39.44602 -8.44830 35749 ft 428 kts 176°
2026-05-08 09:08 39.41699 -8.44246 35984 ft 427 kts 176°
2026-05-08 09:08 39.38720 -8.43648 36234 ft 427 kts 176°
2026-05-08 09:08 39.35808 -8.43063 36479 ft 426 kts 176°
2026-05-08 09:09 39.32882 -8.42477 36700 ft 426 kts 176°
2026-05-08 09:09 39.29931 -8.41887 36900 ft 427 kts 176°
2026-05-08 09:09 39.24011 -8.40702 36935 ft 429 kts 176°
2026-05-08 09:10 39.18152 -8.39530 36937 ft 426 kts 176°
2026-05-08 09:10 39.12325 -8.38367 36937 ft 424 kts 176°
2026-05-08 09:11 39.06480 -8.37203 36932 ft 422 kts 177°
2026-05-08 09:11 39.00694 -8.36052 36941 ft 421 kts 177°
2026-05-08 09:12 38.94873 -8.34897 36937 ft 421 kts 177°
2026-05-08 09:12 38.89104 -8.33754 36940 ft 422 kts 177°
2026-05-08 09:13 38.83285 -8.32603 36944 ft 423 kts 177°
2026-05-08 09:13 38.77445 -8.31449 36948 ft 424 kts 177°
2026-05-08 09:14 38.71598 -8.30296 36940 ft 425 kts 177°
2026-05-08 09:14 38.65742 -8.29142 36943 ft 427 kts 178°
2026-05-08 09:15 38.59875 -8.27988 36946 ft 427 kts 178°
2026-05-08 09:15 38.53957 -8.26826 36940 ft 428 kts 178°
2026-05-08 09:16 38.48063 -8.25670 36937 ft 428 kts 178°
2026-05-08 09:16 38.42193 -8.24521 36945 ft 427 kts 178°
2026-05-08 09:17 38.36310 -8.23372 36946 ft 426 kts 178°
2026-05-08 09:17 38.30464 -8.22231 36946 ft 425 kts 178°
2026-05-08 09:18 38.24599 -8.21089 36938 ft 424 kts 178°
2026-05-08 09:18 38.18790 -8.19960 36943 ft 423 kts 178°
2026-05-08 09:19 38.12971 -8.18830 36939 ft 422 kts 178°
2026-05-08 09:19 38.07191 -8.17709 36944 ft 421 kts 179°
2026-05-08 09:20 38.01388 -8.16586 36944 ft 420 kts 179°
2026-05-08 09:20 37.95607 -8.15469 36943 ft 419 kts 179°
2026-05-08 09:21 37.89864 -8.14362 36942 ft 419 kts 179°
2026-05-08 09:23 37.70606 -8.10659 36942 ft 419 kts 179°
2026-05-08 09:23 37.64849 -8.09556 36949 ft 419 kts 179°
2026-05-08 09:24 37.59080 -8.08453 36956 ft 420 kts 179°
2026-05-08 09:24 37.53269 -8.07343 36951 ft 421 kts 179°
2026-05-08 09:25 37.47493 -8.06241 36946 ft 421 kts 180°
2026-05-08 09:25 37.41679 -8.05134 36953 ft 420 kts 180°
2026-05-08 09:26 37.35939 -8.04042 36953 ft 420 kts 180°
2026-05-08 09:26 37.30625 -8.03032 36948 ft 420 kts 180°
2026-05-08 09:27 37.24867 -8.01941 36949 ft 420 kts 180°
2026-05-08 09:27 37.19111 -8.00852 36945 ft 420 kts 180°
2026-05-08 09:28 37.13320 -7.99757 36944 ft 420 kts 180°
2026-05-08 09:28 37.07546 -7.98667 36936 ft 420 kts 180°
2026-05-08 09:29 37.01796 -7.97586 36936 ft 418 kts 181°
2026-05-08 09:29 36.96040 -7.96928 36938 ft 412 kts 185°
2026-05-08 09:30 36.90321 -7.96470 36939 ft 411 kts 185°
2026-05-08 09:30 36.84632 -7.96005 36943 ft 410 kts 185°
2026-05-08 09:31 36.78931 -7.95514 36950 ft 410 kts 185°
2026-05-08 09:31 36.73255 -7.95016 36952 ft 409 kts 185°
2026-05-08 09:32 36.67579 -7.94516 36960 ft 408 kts 186°
2026-05-08 09:32 36.61902 -7.94017 36963 ft 408 kts 186°
2026-05-08 09:33 36.56241 -7.93520 36966 ft 408 kts 186°
2026-05-08 09:33 36.50577 -7.93023 36965 ft 408 kts 186°
2026-05-08 09:34 36.44917 -7.92528 36965 ft 408 kts 186°
2026-05-08 09:34 36.39248 -7.92033 36963 ft 408 kts 186°
2026-05-08 09:35 36.33586 -7.91539 36964 ft 408 kts 186°
2026-05-08 09:35 36.27894 -7.91042 36959 ft 408 kts 186°
2026-05-08 09:36 36.22255 -7.90552 36968 ft 408 kts 186°
2026-05-08 09:36 36.16578 -7.90058 36968 ft 408 kts 187°
2026-05-08 09:37 36.10914 -7.89567 36965 ft 408 kts 187°
2026-05-08 09:37 36.05235 -7.89074 36967 ft 407 kts 187°
2026-05-08 09:38 35.99590 -7.88586 36967 ft 407 kts 187°
2026-05-08 09:38 35.93940 -7.88091 36963 ft 406 kts 187°
2026-05-08 09:39 35.88310 -7.87578 36964 ft 406 kts 187°
2026-05-08 09:39 35.82680 -7.87063 36965 ft 405 kts 187°
2026-05-08 09:40 35.77089 -7.86554 36966 ft 404 kts 187°
2026-05-08 09:40 35.71475 -7.86045 36965 ft 404 kts 187°
2026-05-08 09:41 35.65887 -7.85540 36969 ft 403 kts 188°
2026-05-08 09:41 35.60271 -7.85033 36971 ft 402 kts 188°
2026-05-08 09:42 35.54693 -7.84530 36972 ft 402 kts 188°
2026-05-08 09:42 35.49143 -7.84031 36966 ft 402 kts 188°
2026-05-08 09:43 35.43554 -7.83528 36967 ft 401 kts 188°
2026-05-08 09:43 35.37994 -7.83039 36970 ft 401 kts 188°
2026-05-08 09:44 35.32438 -7.82571 36967 ft 400 kts 188°
2026-05-08 09:44 35.26871 -7.82105 36966 ft 400 kts 188°
2026-05-08 09:45 35.21329 -7.81640 36968 ft 400 kts 188°
2026-05-08 09:45 35.15755 -7.81171 36970 ft 400 kts 188°
2026-05-08 09:46 35.10212 -7.80705 36970 ft 400 kts 188°
2026-05-08 09:46 35.04638 -7.80237 36974 ft 400 kts 189°
2026-05-08 09:47 34.99096 -7.79773 36973 ft 400 kts 189°
2026-05-08 09:47 34.93534 -7.79307 36975 ft 400 kts 189°
2026-05-08 09:48 34.87970 -7.78842 36977 ft 400 kts 189°
2026-05-08 09:48 34.82414 -7.78378 36974 ft 401 kts 189°
2026-05-08 09:49 34.76879 -7.77916 36972 ft 401 kts 189°
2026-05-08 09:49 34.71293 -7.77471 36973 ft 400 kts 189°
2026-05-08 09:50 34.65755 -7.77089 36970 ft 399 kts 189°
2026-05-08 09:50 34.60202 -7.76711 36971 ft 400 kts 189°
2026-05-08 09:51 34.54666 -7.76328 36975 ft 400 kts 189°
2026-05-08 09:51 34.49104 -7.75942 36975 ft 400 kts 189°
2026-05-08 09:52 34.43528 -7.75553 36976 ft 400 kts 189°
2026-05-08 09:52 34.37991 -7.75169 36974 ft 400 kts 189°
2026-05-08 09:53 34.32425 -7.74782 36974 ft 400 kts 189°
2026-05-08 09:53 34.26884 -7.74398 36976 ft 400 kts 189°
2026-05-08 09:54 34.21329 -7.74014 36973 ft 400 kts 189°
2026-05-08 09:54 34.15741 -7.73592 36973 ft 401 kts 188°
2026-05-08 09:55 34.10193 -7.73071 36977 ft 402 kts 188°
2026-05-08 09:55 34.04595 -7.72535 36977 ft 402 kts 188°
2026-05-08 09:56 33.99009 -7.72013 36972 ft 402 kts 188°
2026-05-08 09:56 33.93463 -7.71500 36965 ft 402 kts 188°
2026-05-08 09:57 33.85091 -7.70730 36955 ft 402 kts 188°
2026-05-08 09:57 33.80411 -7.70301 36947 ft 403 kts 188°
2026-05-08 09:58 33.74814 -7.69787 36946 ft 403 kts 188°
2026-05-08 09:58 33.69240 -7.69276 36940 ft 403 kts 188°
2026-05-08 09:59 33.63636 -7.68763 36937 ft 404 kts 188°
2026-05-08 09:59 33.58017 -7.68249 36938 ft 405 kts 188°
2026-05-08 10:00 33.52393 -7.67609 36928 ft 411 kts 182°
2026-05-08 10:00 33.46842 -7.65576 36934 ft 421 kts 173°
2026-05-08 10:01 33.41282 -7.63169 36968 ft 429 kts 173°
2026-05-08 10:01 33.35651 -7.60757 36962 ft 432 kts 173°
2026-05-08 10:02 33.29948 -7.58342 36958 ft 433 kts 173°
2026-05-08 10:02 33.24293 -7.55959 36954 ft 433 kts 173°
2026-05-08 10:03 33.18606 -7.53566 36950 ft 432 kts 173°
2026-05-08 10:03 33.12948 -7.51264 36941 ft 423 kts 178°
2026-05-08 10:04 33.10081 -7.50606 36948 ft 410 kts 186°
2026-05-08 10:04 33.07308 -7.50479 36886 ft 394 kts 191°
2026-05-08 10:04 33.04583 -7.50487 36420 ft 389 kts 190°
2026-05-08 10:04 33.01867 -7.50503 35922 ft 388 kts 191°
2026-05-08 10:05 32.99153 -7.50512 35156 ft 392 kts 191°
2026-05-08 10:05 32.96420 -7.50517 34429 ft 397 kts 191°
2026-05-08 10:05 32.93633 -7.50510 33706 ft 400 kts 191°
2026-05-08 10:05 32.90827 -7.50493 32888 ft 404 kts 190°
2026-05-08 10:06 32.88034 -7.50476 32091 ft 407 kts 190°
2026-05-08 10:06 32.85190 -7.50457 31310 ft 410 kts 190°
2026-05-08 10:06 32.82312 -7.50440 30523 ft 413 kts 190°
2026-05-08 10:06 32.79422 -7.50424 29644 ft 417 kts 190°
2026-05-08 10:07 32.76525 -7.50407 28661 ft 420 kts 189°
2026-05-08 10:07 32.73592 -7.50384 27733 ft 423 kts 188°
2026-05-08 10:07 32.70664 -7.50362 27042 ft 420 kts 188°
2026-05-08 10:07 32.67750 -7.50344 26410 ft 416 kts 188°
2026-05-08 10:08 32.64875 -7.50325 25763 ft 413 kts 187°
2026-05-08 10:08 32.61977 -7.50291 25128 ft 411 kts 187°
2026-05-08 10:08 32.59144 -7.50267 24518 ft 408 kts 187°
2026-05-08 10:08 32.56316 -7.50247 23905 ft 406 kts 186°
2026-05-08 10:09 32.53477 -7.50224 23264 ft 404 kts 186°
2026-05-08 10:09 32.50669 -7.50204 22620 ft 401 kts 186°
2026-05-08 10:09 32.47895 -7.50188 22033 ft 397 kts 186°
2026-05-08 10:09 32.45136 -7.50172 21443 ft 394 kts 186°
2026-05-08 10:10 32.42407 -7.50157 20855 ft 390 kts 185°
2026-05-08 10:10 32.39730 -7.50141 20290 ft 388 kts 185°
2026-05-08 10:10 32.37010 -7.50124 19719 ft 385 kts 185°
2026-05-08 10:10 32.34329 -7.50108 18970 ft 387 kts 185°
2026-05-08 10:11 32.31627 -7.50093 18174 ft 391 kts 184°
2026-05-08 10:11 32.28908 -7.50076 17464 ft 389 kts 184°
2026-05-08 10:11 32.26222 -7.50057 16870 ft 385 kts 184°
2026-05-08 10:11 32.23575 -7.50038 16247 ft 382 kts 184°
2026-05-08 10:12 32.20925 -7.50020 15622 ft 380 kts 184°
2026-05-08 10:12 32.18285 -7.50003 15007 ft 378 kts 183°
2026-05-08 10:12 32.15640 -7.49986 14414 ft 377 kts 183°
2026-05-08 10:12 32.13007 -7.49969 13830 ft 375 kts 183°
2026-05-08 10:13 32.10436 -7.50049 13215 ft 370 kts 191°
2026-05-08 10:13 32.08029 -7.50942 12679 ft 360 kts 208°
2026-05-08 10:13 32.05954 -7.52575 12116 ft 354 kts 224°
2026-05-08 10:13 32.04274 -7.54643 11481 ft 353 kts 229°
2026-05-08 10:14 32.02635 -7.56813 10927 ft 351 kts 229°
2026-05-08 10:14 32.01040 -7.58948 10727 ft 338 kts 229°
2026-05-08 10:14 31.99518 -7.60971 10569 ft 325 kts 229°
2026-05-08 10:14 31.98030 -7.62931 10429 ft 314 kts 229°
2026-05-08 10:15 31.96615 -7.64782 10292 ft 303 kts 228°
2026-05-08 10:15 31.95222 -7.66596 10174 ft 292 kts 228°
2026-05-08 10:15 31.93887 -7.68332 10036 ft 278 kts 228°
2026-05-08 10:15 31.92619 -7.69974 9904 ft 267 kts 228°
2026-05-08 10:16 31.91378 -7.71583 9579 ft 266 kts 228°
2026-05-08 10:16 31.90126 -7.73206 9325 ft 264 kts 228°
2026-05-08 10:16 31.88892 -7.74803 9035 ft 263 kts 228°
2026-05-08 10:16 31.87672 -7.76380 8752 ft 262 kts 228°
2026-05-08 10:17 31.86447 -7.77965 8467 ft 261 kts 228°
2026-05-08 10:17 31.85221 -7.79548 8203 ft 259 kts 228°
2026-05-08 10:18 31.84172 -7.80632 7966 ft 260 kts 210°
2026-05-08 10:18 31.82468 -7.81288 7716 ft 259 kts 187°
2026-05-08 10:18 31.80675 -7.81270 7473 ft 259 kts 178°
2026-05-08 10:19 31.78852 -7.81119 7172 ft 260 kts 177°
2026-05-08 10:19 31.77067 -7.80964 6916 ft 260 kts 177°
2026-05-08 10:19 31.75246 -7.80813 6633 ft 260 kts 177°
2026-05-08 10:20 31.71642 -7.80536 6059 ft 259 kts 177°
2026-05-08 10:20 31.69850 -7.80405 5781 ft 258 kts 177°
2026-05-08 10:20 31.68045 -7.80274 5536 ft 258 kts 177°
2026-05-08 10:20 31.66282 -7.80181 5401 ft 257 kts 184°
2026-05-08 10:21 31.64520 -7.80524 5129 ft 257 kts 188°
2026-05-08 10:21 31.62717 -7.80771 4861 ft 257 kts 186°
2026-05-08 10:21 31.60982 -7.81148 4578 ft 256 kts 205°
2026-05-08 10:21 31.59644 -7.82464 4358 ft 251 kts 237°
2026-05-08 10:22 31.59055 -7.84364 4145 ft 249 kts 264°
2026-05-08 10:22 31.59084 -7.86329 4052 ft 236 kts 276°
2026-05-08 10:22 31.59253 -7.88115 3936 ft 224 kts 277°
2026-05-08 10:22 31.59430 -7.89875 3848 ft 212 kts 277°
2026-05-08 10:23 31.59592 -7.91535 3727 ft 195 kts 276°
2026-05-08 10:23 31.59737 -7.93047 3569 ft 178 kts 277°
2026-05-08 10:23 31.59867 -7.94427 3474 ft 156 kts 277°
2026-05-08 10:23 31.59979 -7.95653 3120 ft 153 kts 277°
2026-05-08 10:24 31.60088 -7.96882 2794 ft 152 kts 276°
2026-05-08 10:24 31.60185 -7.98121 2388 ft 151 kts 277°
2026-05-08 10:24 31.60299 -7.99345 2078 ft 150 kts 277°
2026-05-08 10:24 31.60413 -8.00574 1954 ft 156 kts 276°
2026-05-08 10:25 31.60527 -8.01847 1675 ft 152 kts 276°
2026-05-08 10:25 31.60639 -8.03036 1562 ft 142 kts 276°
2026-05-08 10:25 31.60733 -8.04227 1954 ft 151 kts 275°
2026-05-08 10:25 31.60858 -8.05524 2384 ft 173 kts 277°
2026-05-08 10:26 31.60993 -8.07002 2915 ft 187 kts 275°
2026-05-08 10:26 31.61140 -8.08703 2885 ft 226 kts 276°
2026-05-08 10:26 31.61302 -8.10551 2912 ft 229 kts 275°
2026-05-08 10:26 31.61460 -8.12452 3460 ft 232 kts 276°
2026-05-08 10:27 31.61622 -8.14323 4439 ft 235 kts 276°
2026-05-08 10:27 31.61797 -8.16239 5536 ft 231 kts 275°
2026-05-08 10:27 31.61966 -8.18153 5919 ft 239 kts 274°
2026-05-08 10:27 31.62132 -8.20091 5935 ft 236 kts 275°
2026-05-08 10:28 31.62299 -8.22006 5996 ft 238 kts 275°
2026-05-08 10:28 31.62481 -8.24016 6025 ft 263 kts 275°
2026-05-08 10:28 31.62673 -8.26185 6012 ft 270 kts 275°
2026-05-08 10:28 31.62862 -8.28395 5960 ft 275 kts 275°
2026-05-08 10:29 31.63053 -8.30642 5985 ft 276 kts 274°
2026-05-08 10:29 31.63247 -8.32883 5985 ft 273 kts 275°
2026-05-08 10:29 31.63436 -8.35068 5974 ft 270 kts 274°
2026-05-08 10:29 31.63622 -8.37240 5981 ft 269 kts 274°
2026-05-08 10:30 31.63808 -8.39446 5981 ft 271 kts 275°
2026-05-08 10:30 31.63999 -8.41662 5996 ft 271 kts 275°
2026-05-08 10:30 31.64189 -8.43865 5973 ft 271 kts 275°
2026-05-08 10:30 31.64311 -8.45307 5986 ft 271 kts 274°
2026-05-08 10:31 31.64563 -8.48250 5999 ft 270 kts 275°
2026-05-08 10:31 31.64712 -8.49716 5980 ft 272 kts 281°
2026-05-08 10:31 31.65541 -8.51707 5992 ft 274 kts 309°
2026-05-08 10:31 31.67652 -8.53271 5993 ft 278 kts 345°
2026-05-08 10:32 31.68941 -8.53427 5970 ft 280 kts
2026-05-08 10:32 31.70797 -8.52765 5972 ft 279 kts 32°
2026-05-08 10:32 31.72167 -8.51187 5975 ft 280 kts 60°
2026-05-08 10:32 31.72773 -8.49035 6002 ft 278 kts 85°
2026-05-08 10:33 31.72735 -8.46758 6006 ft 278 kts 96°
2026-05-08 10:33 31.72551 -8.44492 6000 ft 281 kts 97°
2026-05-08 10:33 31.72339 -8.42194 5989 ft 282 kts 97°
2026-05-08 10:33 31.72126 -8.39911 5986 ft 282 kts 97°
2026-05-08 10:34 31.71919 -8.37644 5977 ft 280 kts 97°
2026-05-08 10:34 31.71715 -8.35350 5973 ft 280 kts 97°
2026-05-08 10:34 31.71533 -8.33255 5994 ft 279 kts 96°
2026-05-08 10:34 31.71338 -8.30976 6017 ft 280 kts 97°
2026-05-08 10:35 31.71130 -8.28686 6508 ft 283 kts 97°
2026-05-08 10:35 31.70934 -8.26379 6576 ft 287 kts 97°
2026-05-08 10:35 31.70742 -8.24059 6573 ft 283 kts 96°
2026-05-08 10:35 31.70551 -8.21763 6587 ft 278 kts 97°
2026-05-08 10:36 31.70355 -8.19523 6602 ft 281 kts 97°
2026-05-08 10:36 31.70163 -8.17223 6585 ft 283 kts 96°
2026-05-08 10:36 31.69971 -8.14914 6592 ft 284 kts 97°
2026-05-08 10:36 31.69780 -8.12602 6583 ft 283 kts 96°
2026-05-08 10:37 31.69586 -8.10308 6591 ft 280 kts 96°
2026-05-08 10:37 31.69397 -8.08065 6582 ft 279 kts 97°
2026-05-08 10:37 31.69203 -8.05792 6583 ft 277 kts 97°
2026-05-08 10:37 31.69013 -8.03553 6584 ft 275 kts 97°
2026-05-08 10:38 31.68820 -8.01311 6596 ft 277 kts 97°
2026-05-08 10:38 31.68622 -7.99042 6610 ft 281 kts 97°
2026-05-08 10:38 31.68428 -7.96758 6584 ft 279 kts 97°
2026-05-08 10:38 31.68229 -7.94473 6373 ft 281 kts 97°
2026-05-08 10:39 31.68033 -7.92226 6112 ft 279 kts 96°
2026-05-08 10:39 31.67838 -7.89969 5861 ft 276 kts 96°
2026-05-08 10:39 31.67644 -7.87723 5610 ft 273 kts 96°
2026-05-08 10:39 31.67459 -7.85563 5508 ft 265 kts 96°
2026-05-08 10:40 31.67166 -7.83441 5474 ft 263 kts 111°
2026-05-08 10:40 31.66161 -7.81716 5496 ft 249 kts 140°
2026-05-08 10:40 31.64698 -7.80809 5425 ft 231 kts 164°
2026-05-08 10:40 31.63093 -7.80630 5073 ft 228 kts 182°
2026-05-08 10:41 31.61547 -7.80775 4796 ft 221 kts 187°
2026-05-08 10:41 31.60142 -7.81366 4535 ft 213 kts 217°
2026-05-08 10:41 31.59245 -7.82670 4349 ft 199 kts 246°
2026-05-08 10:41 31.58979 -7.84184 4154 ft 184 kts 271°
2026-05-08 10:42 31.59071 -7.85631 3963 ft 173 kts 276°
2026-05-08 10:42 31.59196 -7.86982 3740 ft 163 kts 277°
2026-05-08 10:42 31.59316 -7.88275 3582 ft 156 kts 277°
2026-05-08 10:42 31.59429 -7.89523 3465 ft 154 kts 277°
2026-05-08 10:43 31.59545 -7.90783 3289 ft 155 kts 278°
2026-05-08 10:43 31.59659 -7.92035 3115 ft 155 kts 276°
2026-05-08 10:43 31.59771 -7.93289 2941 ft 154 kts 277°
2026-05-08 10:43 31.59884 -7.94527 2755 ft 155 kts 277°
2026-05-08 10:44 31.59996 -7.95788 2585 ft 156 kts 277°
2026-05-08 10:44 31.60107 -7.97051 2409 ft 155 kts 276°
2026-05-08 10:44 31.60214 -7.98300 2222 ft 152 kts 277°
2026-05-08 10:44 31.60327 -7.99546 2093 ft 157 kts 277°
2026-05-08 10:45 31.60437 -8.00817 1831 ft 156 kts 278°
2026-05-08 10:45 31.60543 -8.02033 1607 ft 145 kts 277°
2026-05-08 10:45 31.60648 -8.03153 1545 ft 126 kts 274°
2026-05-08 10:45 31.60723 -8.03999 1538 ft 82 kts 275°
2026-05-08 10:46 31.60769 -8.04502 1532 ft 46 kts 276°
2026-05-08 10:46 31.60802 -8.04857 1527 ft 42 kts 276°
2026-05-08 10:46 31.60824 -8.05151 1531 ft 23 kts 269°
2026-05-08 10:46 31.60717 -8.05254 1535 ft 19 kts 185°
2026-05-08 10:47 31.60651 -8.05166 1544 ft 12 kts 95°
2026-05-08 10:47 31.60646 -8.05101 1546 ft 12 kts 95°
2026-05-08 10:47 31.60625 -8.04875 1544 ft 11 kts 96°
2026-05-08 10:48 31.60617 -8.04785 1544 ft 11 kts 96°
2026-05-08 10:48 31.60608 -8.04694 1547 ft 11 kts 94°
2026-05-08 10:48 31.60603 -8.04603 1547 ft 11 kts 96°
2026-05-08 10:48 31.60593 -8.04514 1545 ft 11 kts 97°
2026-05-08 10:49 31.60583 -8.04436 1539 ft 8 kts 110°
2026-05-08 10:49 31.60537 -8.04410 1543 ft 8 kts 183°
2026-05-08 10:49 31.60493 -8.04417 1548 ft 6 kts 187°
2026-05-08 10:49 31.60453 -8.04423 1538 ft 6 kts 187°
2026-05-08 10:50 31.60443 -8.04424 1540 ft 0 kts 186°
2026-05-08 10:50 31.60421 -8.04426 1545 ft 6 kts 181°
2026-05-08 10:50 31.60387 -8.04423 1548 ft 1 kts 180°
2026-05-08 10:50 31.60378 -8.04423 1545 ft 1 kts 182°
2026-05-08 10:51 31.60369 -8.04424 1548 ft 1 kts 185°
2026-05-08 10:51 31.60360 -8.04425 1548 ft 1 kts 186°
2026-05-08 10:51 31.60353 -8.04426 1546 ft 0 kts 186°